SCP
0 0 0 0 0 0 0 0 0 0 0 0 0 0 0 0 0 0 0 0 0 0 0 0 0 0 0 0 0 0 0 0 0 0 0 0 0 0 0 0 0 0 0 0 0 0 0 0 0 0 0 0 0 0
0 0 0 0 0 0 0 0 0 0 0 0 0 0 0 0 0 0 0 0 0 0 0 0 0 0 0 0 0 0 0 0 0 0 0 0 0 0 0 0 0 0 0 0 0 0 0 0 0 0 0 0 0 0
0 0 0 0 0 0 0 0 0 0 0 0 0 0 0 0 0 0 0 0 0 0 0 0 0 0 0 0 0 0 0 0 0 0 0 0 0 0 0 0 0 0 0 0 0 0 0 0 0 0 0 0 0 0
0 0 0 0 0 0 0 0 0 0 0 0 0 0 0 0 0 0 0 0 0 0 0 0 0 0 -0 -0 0 0 0 0 0 0 0 0 0 0 0 0 0 0 0 0 0 0 0 0 0 0 0 0 0 0
0 0 0 0 0 0 0 0 0 0 0 0 0 0 0 0 0 0 0 0 0 0 0 0 0 0 0 0 0 0 0 0 0 0 0 0 0 0 0 0 0 0 0 0 0 0 0 0 0 0 0 0 -0 0
0 0 0 0 0 0 0 0 0 0 0 0 0 0 0 0 0 0 0 0 0 0 0 0 0 0 0 0 0 0 0 0 0 0 0 0 0 0 0 0 0 0 0 0 0 0 0 0 0 0 -0 -0 0 -0
0 0 0 0 0 0 0 0 0 0 0 0 0 0 0 0 0 0 0 0 0 0 0 0 0 0 0 0 0 0 0 0 0 0 0 0 0 0 0 0 0 0 0 0 0 0 0 0 0 0 0 0 0 0
0 0 0 0 0 0 0 0 0 0 0 0 0 0 0 0 0 0 0 0 0 0 0 0 0 0 0 0 0 0 0 0 0 0 0 0 0 0 0 0 0 0 0 0 0 0 0 0 0 0 0 0 0 0
0 0 0 0 0 0 0 0 0 0 0 0 0 0 0 0 0 0 0 0 0 0 0 0 0 0 0 0 0 0 0 0 0 0 0 0 0 0 0 0 0 0 0 0 0 0 0 0 0 0 0 0 0 0
0 0 0 0 0 0 0 0 0 0 0 0 0 0 0 0 0 0 0 0 0 0 0 0 0 0 0 0 0 0 0 0 0 0 0 0 0 0 0 0 0 0 0 0 0 0 0 0 0 0 0 0 0 0
0 0 0 0 0 0 0 0 0 0 0 0 0 0 0 0 0 0 0 0 0 0 0 0 0 0 0 0 0 0 0 0 0 0 0 0 0 0 0 0 0 0 0 0 0 0 0 0 0 0 0 0 0 0
0 0 0 0 0 0 0 0 0 0 0 0 0 0 0 0 0 0 0 0 0 0 0 0 0 0 0 0 0 0 0 0 0 0 0 0 0 0 0 0 0 0 0 0 0 0 0 0 0 0 0 0 0 0
0 0 0 0 0 0 0 0 0 0 0 0 0 0 0 0 0 0 0 0 0 0 0 0 0 0 0 0 0 0 0 0 0 0 0 0 0 0 0 0 0 0 0 0 0 0 0 0 0 0 0 0 0 0
0 0 0 0 0 0 0 0 0 0 0 0 0 0 0 0 0 0 0 0 0 0 0 0 0 0 0 0 0 0 0 0 0 0 0 0 0 0 0 0 0 0 0 0 0 0 0 0 0 0 0 0 0 0
0 0 0 0 0 0 0 0 0 0 0 0 0 0 0 0 0 0 0 0 0 0 0 0 0 0 0 0 0 0 0 0 0 0 0 0 0 0 0 0 0 0 0 0 0 0 0 0 0 0 0 0 0 0
0 0 0 0 0 0 0 0 0 0 0 0 0 0 0 0 0 0 0 0 0 0 0 0 0 0 0 0 0 0 0 0 0 0 0 0 0 0 0 0 0 0 0 0 0 0 0 0 0 0 0 0 0 0
0 0 0 0 0 0 0 0 0 0 0 0 0 0 0 0 0 0 0 0 0 0 0 0 0 0 0 0 0 0 0 0 0 0 0 0 0 0 0 0 0 0 0 0 0 0 0 0 0 0 0 0 0 0
0 0 0 0 0 0 0 0 0 0 0 0 0 0 0 0 0 0 0 0 0 0 0 0 0 0 0 0 0 0 0 0 0 0 0 0 0 0 0 0 0 0 0 0 0 0 0 0 0 0 0 0 0 0
0 0 0 0 0 0 0 0 0 0 0 0 0 0 0 0 0 0 0 0 0 0 0 0 0 0 0 0 0 0 0 0 0 0 0 0 0 0 0 0 0 0 0 0 0 0 0 0 0 0 0 0 0 0
0 0 0 0 0 0 0 0 0 0 0 0 0 0 0 0 0 0 0 0 0 0 0 0 0 0 0 0 0 0 0 0 0 0 0 0 0 0 0 0 0 0 0 0 0 0 0 0 0 0 0 0 0 0
0 0 0 0 0 0 0 0 0 0 0 0 0 0 0 0 0 0 0 0 0 0 0 0 0 0 0 0 0 0 0 0 0 0 0 0 0 0 0 0 0 0 0 0 0 0 0 0 0 0 0 0 0 0
0 0 0 0 0 0 0 0 0 0 0 0 0 0 0 0 0 0 0 0 0 0 0 0 0 0 0 0 0 0 0 0 0 0 0 0 0 0 0 0 0 0 0 0 0 0 0 0 0 0 0 0 0 0
0 0 0 0 0 0 0 0 0 0 0 0 0 0 0 0 0 0 0 0 0 0 0 0 0 0 0 0 0 0 0 0 0 0 0 0 0 0 0 0 0 0 0 0 0 0 0 0 0 0 0 0 0 0
0 0 0 0 0 0 0 0 0 0 0 0 0 0 0 0 0 0 0 0 0 0 0 0 0 0 0 0 0 0 0 0 0 0 0 0 0 0 0 0 0 0 0 0 0 0 0 0 0 0 0 0 0 0
0 0 0 0 0 0 0 0 0 0 0 0 0 0 0 0 0 0 0 0 0 0 0 0 0 0 0 0 0 0 0 0 0 0 0 0 0 0 0 0 0 0 0 0 0 0 0 0 0 0 0 0 0 0
0 0 0 0 0 0 0 0 0 0 0 0 0 0 0 0 0 0 0 0 0 0 0 0 0 0 0 0 0 0 0 0 0 0 0 0 0 0 0 0 0 0 0 0 0 0 0 0 0 0 0 0 0 0
0 0 0 0 0 0 0 0 0 0 0 0 0 0 0 0 0 0 0 0 0 0 0 0 0 0 0 0 0 0 0 0 0 0 0 0 0 0 0 0 0 0 0 0 0 0 0 0 0 0 0 0 0 0
0 0 0 0 0 0 0 0 0 0 0 0 0 0 0 0 0 0 0 0 0 0 0 0 0 0 0 0 0 0 0 0 0 0 0 0 0 0 0 0 0 0 0 0 0 0 0 0 0 0 0 0 0 0
0 0 0 -0 0 0 0 0 0 0 0 0 0 0 0 0 0 0 0 0 -0 0 0 0 0 0 0 0 0 0 0 0 0 -0 0 -0 0 0 0 0 0 0 0 0 0 0 0 0 0 0 0 0 0 0
0 0 0 0 0 0 0 0 0 0 0 0 0 0 0 0 0 0 0 0 0 0 0 0 0 0 0 0 0 0 0 0 0 -0 -0 -0 -0 0 0 0 0 0 0 0 0 0 0 0 0 0 0 0 0 0
0 0 0 0 0 0 0 0 0 0 0 0 0 0 0 0 0 0 0 0 0 0 0 0 0 0 -0 -0 -0 -0 -0 -0 -0 0 -0 0 0 0 0 0 0 0 0 0 0 0 0 0 0 0 0 0 0 0
0 0 0 0 0 0 0 0 0 0 0 0 0 0 0 0 0 0 0 0 0 0 0 0 -0 -0 -0 0 -0 -0 0 -0 0 -0 -0 0 0 0 0 0 0 0 0 0 0 0 0 0 0 0 0 0 0 -0
0 0 0 0 0 0 0 0 0 0 0 0 0 0 0 0 0 0 0 0 0 -0 -0 0 0 -0 -0 0 -0 -0 0 0 -0 -0 0 0 0 0 0 0 0 0 0 0 0 0 0 0 0 0 0 0 -0 0
Wind_Speed_500mb
47 46 52 54 55 49 37 28 25 22 20 19 15 11 11 8 5 5 7 12 8 4 6 11 11 18 19 14 7 13 8 19 11 9 4 4 3 3 7 8 8 11 10 5 6 5 8 22 7 10 11 6 29 33
47 47 47 51 54 53 47 39 30 25 21 19 16 13 13 9 4 2 4 5 8 10 6 12 7 3 9 16 10 15 11 6 8 6 2 1 6 7 3 2 2 2 11 11 14 12 14 27 18 22 28 43 41 35
51 48 46 48 50 52 51 46 35 29 24 22 19 16 13 12 11 7 6 5 6 8 13 9 3 2 5 7 10 5 11 9 8 7 2 2 8 5 4 3 3 8 11 7 8 3 20 29 27 31 32 42 38 37
63 47 47 45 46 45 47 48 41 35 29 25 23 19 16 15 15 9 5 4 7 4 5 5 12 5 4 8 6 6 2 0 2 8 4 4 2 2 5 6 5 7 5 7 5 8 16 23 34 40 41 40 39 31
65 60 48 43 43 43 42 46 37 31 29 26 23 20 17 19 19 14 7 7 4 2 4 12 5 9 13 10 8 5 6 7 1 3 4 4 5 2 4 4 5 6 4 8 9 13 19 35 47 47 46 43 34 38
59 62 53 45 40 42 46 48 35 35 27 25 23 19 18 21 21 12 9 19 18 7 7 6 6 12 18 12 9 10 3 3 2 4 8 8 7 5 5 5 9 12 20 7 10 29 31 36 36 33 28 34 42 42
57 54 50 47 41 41 42 47 46 36 28 26 21 19 18 21 24 18 6 8 23 15 6 10 12 11 22 13 7 13 9 6 3 5 8 6 5 1 6 8 13 1 5 6 22 30 29 33 31 25 23 28 43 43
60 49 55 51 46 43 43 43 43 33 29 24 20 16 17 20 22 24 2 9 21 16 7 3 10 5 20 13 6 14 8 14 7 8 6 6 5 8 6 20 24 19 17 10 17 42 27 34 31 28 25 36 54 49
64 50 56 52 48 46 44 41 35 29 22 18 15 16 15 15 16 19 13 8 17 11 5 4 6 8 18 16 12 14 14 2 8 10 9 6 3 8 16 26 22 17 17 18 15 12 33 32 25 28 40 52 50 46
48 53 54 50 48 47 42 42 37 27 19 23 30 11 10 18 19 19 9 7 11 11 8 9 7 6 15 20 15 7 8 6 1 10 10 5 9 28 30 23 19 13 14 9 19 22 25 28 25 42 48 46 47 46
53 52 53 52 52 50 47 42 34 26 32 37 12 7 22 31 19 10 8 8 10 5 13 15 17 8 6 8 10 14 8 4 3 10 10 4 6 26 40 54 50 30 22 15 13 15 13 11 7 18 47 51 54 49
47 49 50 54 51 52 49 40 33 35 33 21 16 24 28 10 7 7 7 7 9 11 13 18 36 28 9 11 10 11 6 4 9 2 6 5 9 13 22 20 27 46 45 33 25 20 18 19 21 26 20 52 59 53
50 49 47 45 48 45 42 36 30 41 36 23 14 13 11 11 3 13 13 7 6 11 20 24 15 23 16 10 6 6 6 10 4 2 7 9 3 10 14 16 8 9 25 24 18 12 15 18 21 31 31 28 43 54
55 51 49 46 43 44 38 35 41 44 27 10 11 3 10 8 10 10 10 11 21 17 22 36 19 11 10 5 5 6 7 5 3 4 9 9 12 31 32 31 33 26 17 10 3 9 15 21 22 31 32 34 37 56
48 50 49 49 47 40 35 34 54 35 12 8 8 9 11 20 18 20 25 27 28 17 12 28 13 9 5 6 3 2 3 9 11 10 6 15 22 26 28 23 20 16 11 5 1 13 12 16 21 19 24 31 49 55
56 52 47 46 42 36 40 49 39 16 5 7 10 5 8 10 25 29 34 40 32 36 19 18 7 6 5 8 6 10 6 8 4 7 21 22 22 23 18 13 10 9 8 8 8 6 8 9 11 16 18 37 47 45
46 41 44 45 41 41 47 38 22 11 8 8 10 11 19 24 24 27 8 22 23 35 6 11 7 12 7 6 8 4 3 5 29 30 25 25 21 18 19 20 17 9 9 9 9 10 10 12 9 23 37 46 45 41
34 40 43 42 45 48 41 21 6 4 8 9 6 11 11 8 15 18 28 5 10 10 8 5 4 5 6 5 6 5 25 30 28 25 24 22 19 15 11 12 14 15 15 13 13 11 11 6 6 15 32 40 40 38
41 48 41 48 49 35 14 11 3 5 8 9 12 9 4 10 14 24 27 25 24 22 13 7 8 4 5 11 26 27 33 28 19 21 24 17 11 7 7 12 15 12 11 12 13 15 18 20 18 12 20 36 37 38
37 51 47 49 46 14 6 8 8 8 6 4 15 5 4 1 10 19 23 21 20 13 10 7 6 24 31 30 24 20 17 17 20 19 22 19 17 10 6 10 13 15 14 14 16 19 19 19 21 27 30 25 30 38
42 45 45 37 24 9 9 12 15 12 9 7 8 12 2 6 10 11 16 13 10 6 8 21 27 23 21 22 18 11 5 4 6 7 9 12 12 18 17 19 21 24 28 32 34 34 32 29 25 28 35 31 23 20
49 43 28 19 5 3 3 10 9 6 7 7 3 9 6 3 3 9 7 2 3 5 4 5 10 9 10 10 8 4 2 8 14 16 19 20 23 26 27 29 34 34 36 38 38 40 44 43 37 35 30 31 31 30
47 39 17 19 9 6 6 9 6 7 4 8 10 5 4 9 11 17 7 9 9 14 15 17 11 4 4 4 1 4 7 12 15 15 16 15 15 11 12 15 15 17 19 17 20 25 31 31 31 37 38 36 41 48
38 24 10 12 14 7 7 7 8 4 4 4 6 4 5 10 15 11 5 8 23 27 27 21 16 12 10 7 11 9 2 5 10 13 19 25 28 29 28 29 27 26 26 28 33 40 45 43 39 39 37 39 43 44
9 11 8 10 15 12 10 10 11 8 7 9 7 3 4 13 4 3 8 9 29 33 31 24 21 19 20 19 8 5 8 14 17 21 28 38 43 48 50 50 49 48 50 56 59 60 56 48 43 39 40 36 25 28
4 10 13 9 14 12 14 12 13 13 9 9 10 14 9 6 9 2 3 15 20 17 18 21 21 17 13 17 23 25 27 32 37 40 43 44 45 46 46 48 52 51 43 51 56 60 64 65 65 61 53 47 48 42
3 4 7 6 6 4 2 5 8 9 5 4 3 7 4 6 6 7 17 23 25 18 14 12 13 16 18 21 22 20 22 25 29 32 35 37 39 39 41 48 59 64 59 57 59 62 64 66 68 65 64 67 55 45
15 7 7 9 3 3 6 5 4 4 2 5 2 5 9 8 5 15 15 21 20 16 18 22 22 19 18 15 14 13 14 22 25 31 41 44 41 38 33 31 30 37 42 42 42 45 50 54 57 56 54 56 60 67
4 4 0 14 7 5 5 5 8 8 8 3 5 4 7 7 15 20 20 14 6 12 11 9 7 8 5 3 12 15 17 25 33 37 41 47 49 46 43 47 50 50 49 48 50 50 52 48 45 48 55 63 63 59
4 10 0 5 4 3 2 6 16 18 15 9 11 10 12 15 18 18 15 11 6 4 4 1 1 4 8 13 17 20 17 20 17 26 41 47 47 49 49 53 53 43 42 49 55 58 54 56 57 54 50 47 48 55
3 4 4 7 5 15 21 20 21 19 15 15 12 12 10 9 15 18 15 13 11 8 6 5 8 10 12 16 21 24 25 22 29 37 43 37 39 45 50 52 48 51 58 59 57 52 51 53 52 55 52 48 49 45
9 8 3 6 6 17 17 10 8 5 11 10 7 12 14 10 9 15 16 17 17 10 8 9 11 12 13 17 17 21 25 26 30 31 29 34 41 48 50 43 45 46 44 43 44 51 52 51 49 40 40 44 39 40
7 8 8 10 13 16 16 13 11 7 7 9 9 12 11 10 9 11 11 12 5 6 7 8 13 9 9 12 20 23 24 26 23 25 38 29 37 44 41 43 43 44 38 32 41 55 54 37 23 19 22 28 30 20
Wind_Direction_500mb
208 213 219 220 223 226 228 232 235 245 255 265 263 270 279 287 356 48 63 42 26 297 291 36 31 23 15 18 99 338 68 16 41 49 104 245 187 297 80 174 182 159 131 133 97 93 301 212 194 169 179 89 143 137
207 213 220 218 218 221 223 229 233 240 252 268 269 259 263 258 240 139 130 6 304 287 263 308 343 25 35 30 16 48 101 83 47 79 349 22 15 30 112 344 61 12 173 176 172 209 220 181 175 147 136 133 145 144
205 209 216 213 214 217 220 224 226 227 241 263 272 261 255 242 222 211 199 313 343 304 292 279 296 204 122 4 14 79 81 77 58 39 284 193 74 111 74 248 359 326 156 112 92 283 184 180 169 158 167 155 149 144
205 206 211 211 212 214 218 223 222 234 242 259 269 270 249 236 226 215 204 334 343 319 318 44 112 169 299 351 16 319 100 98 26 12 346 98 113 130 206 216 149 241 78 111 31 78 121 181 170 165 159 155 159 166
205 209 211 210 209 212 216 216 218 232 239 251 265 279 247 234 222 220 187 188 252 28 294 293 251 207 234 277 337 178 303 308 225 186 109 240 243 100 353 59 13 2 197 139 209 179 145 167 171 167 163 168 175 170
203 203 206 208 210 213 213 202 203 210 224 250 263 267 245 221 207 185 177 214 215 221 305 332 318 249 218 257 294 209 211 57 187 187 210 213 182 180 116 197 183 84 61 59 167 159 141 155 177 186 190 187 185 185
196 199 203 206 206 202 202 202 214 220 234 257 264 261 233 207 191 177 173 188 197 186 247 300 296 207 222 238 280 226 211 243 266 241 234 216 197 152 127 186 204 194 13 33 185 179 169 172 172 179 202 191 191 183
193 197 201 200 196 195 197 200 212 218 235 249 257 236 206 196 192 192 121 181 180 186 219 220 273 226 196 192 216 203 208 223 234 231 249 217 206 202 227 225 229 249 274 278 231 207 225 199 191 200 194 186 173 172
191 194 191 194 195 190 193 198 195 206 216 226 204 177 169 176 178 186 188 168 192 200 243 234 180 222 184 191 193 185 207 170 236 207 222 168 274 220 220 204 207 245 234 280 269 235 184 181 202 188 185 182 182 178
194 189 188 190 191 188 184 180 188 192 198 173 153 149 164 167 150 150 163 199 182 206 238 249 252 265 192 181 185 181 180 202 308 243 184 145 247 248 243 232 232 291 202 201 164 170 189 196 193 187 193 204 210 203
189 187 186 186 192 188 180 184 184 181 168 159 155 107 137 141 148 178 190 182 187 234 216 225 218 235 223 151 198 202 184 184 165 260 139 256 281 245 252 245 247 244 241 250 234 214 188 175 180 228 215 215 209 206
178 176 182 182 182 180 177 182 183 179 164 156 123 129 140 186 195 180 200 213 172 212 206 195 209 208 240 214 172 186 167 105 234 140 112 263 249 265 294 267 261 240 238 241 226 216 226 242 256 263 269 222 213 211
182 173 165 167 175 178 182 184 178 172 167 155 150 156 181 181 51 191 193 224 180 208 197 185 185 184 213 225 151 121 148 221 285 61 215 223 334 31 342 240 194 190 203 193 196 223 250 257 257 244 250 259 227 211
168 169 169 169 174 179 182 185 175 179 172 169 176 226 177 227 226 196 189 187 190 212 196 190 164 176 171 117 141 125 231 105 224 211 233 321 82 98 107 112 127 124 135 147 246 284 284 282 268 241 250 250 224 204
168 171 175 181 175 175 182 186 173 177 168 216 215 214 208 230 237 236 241 258 242 265 225 169 158 179 122 115 172 82 211 223 199 214 183 93 79 98 116 114 101 100 108 113 226 255 290 290 282 280 261 237 216 201
160 154 157 158 163 176 171 168 168 166 217 227 234 272 295 228 263 267 265 253 247 253 232 167 132 116 185 156 139 210 197 215 210 140 121 97 85 76 80 96 80 58 47 39 29 349 300 336 281 251 238 213 205 211
151 154 157 163 166 163 164 164 175 204 217 224 238 258 279 286 271 284 203 225 227 187 137 115 124 193 137 128 185 42 332 181 128 115 102 89 87 87 81 82 77 61 35 26 9 346 321 312 322 232 215 211 215 220
167 159 156 159 155 153 165 175 221 184 250 254 285 353 5 40 39 84 65 110 135 98 102 122 134 89 133 129 32 34 72 116 115 107 96 80 77 73 72 62 53 46 44 43 42 47 53 40 316 257 233 220 218 220
149 151 150 155 145 143 159 200 147 269 258 318 284 316 17 50 68 73 72 73 87 91 97 61 71 69 98 98 115 87 70 73 111 84 89 95 91 72 54 39 40 26 2 358 355 350 352 2 357 337 246 225 231 238
143 147 148 149 171 144 124 176 205 319 288 295 270 304 6 360 40 75 76 60 77 74 62 51 80 107 112 111 105 101 85 74 108 94 77 80 68 60 20 3 19 4 345 324 316 321 314 309 320 315 304 290 266 257
150 152 155 158 164 165 176 156 175 237 266 262 295 246 281 89 73 87 67 67 63 59 86 106 95 88 113 124 128 131 145 276 5 13 349 331 331 338 328 326 317 317 325 323 320 310 313 321 318 317 309 301 289 258
155 162 155 160 132 10 231 192 200 208 224 242 261 165 104 110 100 150 142 90 118 146 126 50 75 69 119 128 126 127 339 303 285 287 291 294 306 310 303 302 310 310 305 304 306 306 301 298 304 305 298 273 272 274
160 161 144 178 236 232 250 187 220 209 199 192 151 120 225 182 184 162 170 202 230 245 255 258 281 238 181 137 355 313 278 268 272 272 271 275 267 262 268 268 275 301 313 310 307 311 306 295 294 290 287 282 284 283
168 172 201 202 199 213 199 204 200 257 174 113 138 190 206 187 179 182 172 194 238 244 231 239 214 172 129 126 135 142 151 265 270 283 289 281 277 277 285 289 286 284 292 297 297 295 290 287 290 291 292 296 289 276
185 213 198 212 194 190 181 182 191 193 195 181 192 188 235 171 99 178 183 111 103 132 151 158 150 149 150 135 142 213 255 277 286 288 291 292 295 293 290 287 287 288 290 291 290 289 288 287 282 278 273 284 301 294
237 207 201 224 192 183 170 183 192 192 195 167 195 169 173 162 158 196 100 129 124 147 158 169 164 164 194 231 252 272 288 292 294 293 292 293 295 296 298 301 303 299 296 296 296 293 290 287 281 275 274 274 276 282
274 268 263 272 308 302 268 67 66 101 156 183 99 90 120 220 150 164 155 173 178 183 188 214 234 241 247 255 263 277 294 301 302 299 298 296 297 297 297 299 300 303 308 303 300 297 294 292 287 282 276 270 266 269
231 240 213 161 288 145 103 112 62 54 315 270 162 110 143 167 166 165 180 185 198 214 240 248 247 249 255 262 257 275 302 316 321 321 319 312 315 317 309 301 299 305 302 303 304 305 303 294 284 284 280 277 272 254
191 320 261 158 130 88 52 91 132 177 206 207 109 117 147 127 157 173 170 173 233 265 243 252 271 294 283 297 297 295 320 331 325 340 341 335 334 331 328 319 313 307 304 294 292 301 299 293 292 285 279 275 266 264
308 351 92 75 83 108 97 130 125 123 120 146 148 128 149 161 167 173 181 198 225 265 279 313 42 317 302 297 296 294 301 305 324 324 327 322 325 328 325 322 318 317 315 307 303 304 295 294 285 283 274 281 291 275
279 17 71 63 83 134 133 132 131 129 114 86 102 141 148 157 189 199 205 198 219 205 190 244 267 248 255 268 289 292 299 300 297 303 318 317 318 326 325 322 323 321 315 309 314 313 306 299 293 287 280 271 281 280
204 211 201 137 129 165 171 173 156 149 160 163 153 128 157 161 172 188 198 185 172 183 239 263 280 282 285 296 298 307 311 310 313 318 308 311 325 327 327 327 327 326 324 323 324 322 314 304 293 278 275 281 276 276
210 224 216 144 141 179 192 180 185 163 190 186 178 179 182 183 186 182 167 172 172 235 239 312 321 312 311 317 324 317 315 319 321 327 336 327 323 329 334 333 334 332 328 324 338 334 335 336 314 293 284 275 266 258
Wind_Speed_850mb
47 46 52 54 55 49 37 28 25 22 20 19 15 11 11 8 5 5 7 12 8 4 6 11 11 18 19 14 7 13 8 19 11 9 4 4 3 3 7 8 8 11 10 5 6 5 8 22 7 10 11 6 29 33
47 47 47 51 54 53 47 39 30 25 21 19 16 13 13 9 4 2 4 5 8 10 6 12 7 3 9 16 10 15 11 6 8 6 2 1 6 7 3 2 2 2 11 11 14 12 14 27 18 22 28 43 41 35
51 48 46 48 50 52 51 46 35 29 24 22 19 16 13 12 11 7 6 5 6 8 13 9 3 2 5 7 10 5 11 9 8 7 2 2 8 5 4 3 3 8 11 7 8 3 20 29 27 31 32 42 38 37
63 47 47 45 46 45 47 48 41 35 29 25 23 19 16 15 15 9 5 4 7 4 5 5 12 5 4 8 6 6 2 0 2 8 4 4 2 2 5 6 5 7 5 7 5 8 16 23 34 40 41 40 39 31
65 60 48 43 43 43 42 46 37 31 29 26 23 20 17 19 19 14 7 7 4 2 4 12 5 9 13 10 8 5 6 7 1 3 4 4 5 2 4 4 5 6 4 8 9 13 19 35 47 47 46 43 34 38
59 62 53 45 40 42 46 48 35 35 27 25 23 19 18 21 21 12 9 19 18 7 7 6 6 12 18 12 9 10 3 3 2 4 8 8 7 5 5 5 9 12 20 7 10 29 31 36 36 33 28 34 42 42
57 54 50 47 41 41 42 47 46 36 28 26 21 19 18 21 24 18 6 8 23 15 6 10 12 11 22 13 7 13 9 6 3 5 8 6 5 1 6 8 13 1 5 6 22 30 29 33 31 25 23 28 43 43
60 49 55 51 46 43 43 43 43 33 29 24 20 16 17 20 22 24 2 9 21 16 7 3 10 5 20 13 6 14 8 14 7 8 6 6 5 8 6 20 24 19 17 10 17 42 27 34 31 28 25 36 54 49
64 50 56 52 48 46 44 41 35 29 22 18 15 16 15 15 16 19 13 8 17 11 5 4 6 8 18 16 12 14 14 2 8 10 9 6 3 8 16 26 22 17 17 18 15 12 33 32 25 28 40 52 50 46
48 53 54 50 48 47 42 42 37 27 19 23 30 11 10 18 19 19 9 7 11 11 8 9 7 6 15 20 15 7 8 6 1 10 10 5 9 28 30 23 19 13 14 9 19 22 25 28 25 42 48 46 47 46
53 52 53 52 52 50 47 42 34 26 32 37 12 7 22 31 19 10 8 8 10 5 13 15 17 8 6 8 10 14 8 4 3 10 10 4 6 26 40 54 50 30 22 15 13 15 13 11 7 18 47 51 54 49
47 49 50 54 51 52 49 40 33 35 33 21 16 24 28 10 7 7 7 7 9 11 13 18 36 28 9 11 10 11 6 4 9 2 6 5 9 13 22 20 27 46 45 33 25 20 18 19 21 26 20 52 59 53
50 49 47 45 48 45 42 36 30 41 36 23 14 13 11 11 3 13 13 7 6 11 20 24 15 23 16 10 6 6 6 10 4 2 7 9 3 10 14 16 8 9 25 24 18 12 15 18 21 31 31 28 43 54
55 51 49 46 43 44 38 35 41 44 27 10 11 3 10 8 10 10 10 11 21 17 22 36 19 11 10 5 5 6 7 5 3 4 9 9 12 31 32 31 33 26 17 10 3 9 15 21 22 31 32 34 37 56
48 50 49 49 47 40 35 34 54 35 12 8 8 9 11 20 18 20 25 27 28 17 12 28 13 9 5 6 3 2 3 9 11 10 6 15 22 26 28 23 20 16 11 5 1 13 12 16 21 19 24 31 49 55
56 52 47 46 42 36 40 49 39 16 5 7 10 5 8 10 25 29 34 40 32 36 19 18 7 6 5 8 6 10 6 8 4 7 21 22 22 23 18 13 10 9 8 8 8 6 8 9 11 16 18 37 47 45
46 41 44 45 41 41 47 38 22 11 8 8 10 11 19 24 24 27 8 22 23 35 6 11 7 12 7 6 8 4 3 5 29 30 25 25 21 18 19 20 17 9 9 9 9 10 10 12 9 23 37 46 45 41
34 40 43 42 45 48 41 21 6 4 8 9 6 11 11 8 15 18 28 5 10 10 8 5 4 5 6 5 6 5 25 30 28 25 24 22 19 15 11 12 14 15 15 13 13 11 11 6 6 15 32 40 40 38
41 48 41 48 49 35 14 11 3 5 8 9 12 9 4 10 14 24 27 25 24 22 13 7 8 4 5 11 26 27 33 28 19 21 24 17 11 7 7 12 15 12 11 12 13 15 18 20 18 12 20 36 37 38
37 51 47 49 46 14 6 8 8 8 6 4 15 5 4 1 10 19 23 21 20 13 10 7 6 24 31 30 24 20 17 17 20 19 22 19 17 10 6 10 13 15 14 14 16 19 19 19 21 27 30 25 30 38
42 45 45 37 24 9 9 12 15 12 9 7 8 12 2 6 10 11 16 13 10 6 8 21 27 23 21 22 18 11 5 4 6 7 9 12 12 18 17 19 21 24 28 32 34 34 32 29 25 28 35 31 23 20
49 43 28 19 5 3 3 10 9 6 7 7 3 9 6 3 3 9 7 2 3 5 4 5 10 9 10 10 8 4 2 8 14 16 19 20 23 26 27 29 34 34 36 38 38 40 44 43 37 35 30 31 31 30
47 39 17 19 9 6 6 9 6 7 4 8 10 5 4 9 11 17 7 9 9 14 15 17 11 4 4 4 1 4 7 12 15 15 16 15 15 11 12 15 15 17 19 17 20 25 31 31 31 37 38 36 41 48
38 24 10 12 14 7 7 7 8 4 4 4 6 4 5 10 15 11 5 8 23 27 27 21 16 12 10 7 11 9 2 5 10 13 19 25 28 29 28 29 27 26 26 28 33 40 45 43 39 39 37 39 43 44
9 11 8 10 15 12 10 10 11 8 7 9 7 3 4 13 4 3 8 9 29 33 31 24 21 19 20 19 8 5 8 14 17 21 28 38 43 48 50 50 49 48 50 56 59 60 56 48 43 39 40 36 25 28
4 10 13 9 14 12 14 12 13 13 9 9 10 14 9 6 9 2 3 15 20 17 18 21 21 17 13 17 23 25 27 32 37 40 43 44 45 46 46 48 52 51 43 51 56 60 64 65 65 61 53 47 48 42
3 4 7 6 6 4 2 5 8 9 5 4 3 7 4 6 6 7 17 23 25 18 14 12 13 16 18 21 22 20 22 25 29 32 35 37 39 39 41 48 59 64 59 57 59 62 64 66 68 65 64 67 55 45
15 7 7 9 3 3 6 5 4 4 2 5 2 5 9 8 5 15 15 21 20 16 18 22 22 19 18 15 14 13 14 22 25 31 41 44 41 38 33 31 30 37 42 42 42 45 50 54 57 56 54 56 60 67
4 4 0 14 7 5 5 5 8 8 8 3 5 4 7 7 15 20 20 14 6 12 11 9 7 8 5 3 12 15 17 25 33 37 41 47 49 46 43 47 50 50 49 48 50 50 52 48 45 48 55 63 63 59
4 10 0 5 4 3 2 6 16 18 15 9 11 10 12 15 18 18 15 11 6 4 4 1 1 4 8 13 17 20 17 20 17 26 41 47 47 49 49 53 53 43 42 49 55 58 54 56 57 54 50 47 48 55
3 4 4 7 5 15 21 20 21 19 15 15 12 12 10 9 15 18 15 13 11 8 6 5 8 10 12 16 21 24 25 22 29 37 43 37 39 45 50 52 48 51 58 59 57 52 51 53 52 55 52 48 49 45
9 8 3 6 6 17 17 10 8 5 11 10 7 12 14 10 9 15 16 17 17 10 8 9 11 12 13 17 17 21 25 26 30 31 29 34 41 48 50 43 45 46 44 43 44 51 52 51 49 40 40 44 39 40
7 8 8 10 13 16 16 13 11 7 7 9 9 12 11 10 9 11 11 12 5 6 7 8 13 9 9 12 20 23 24 26 23 25 38 29 37 44 41 43 43 44 38 32 41 55 54 37 23 19 22 28 30 20
Wind_Direction_850mb
208 213 219 220 223 226 228 232 235 245 255 265 263 270 279 287 356 48 63 42 26 297 291 36 31 23 15 18 99 338 68 16 41 49 104 245 187 297 80 174 182 159 131 133 97 93 301 212 194 169 179 89 143 137
207 213 220 218 218 221 223 229 233 240 252 268 269 259 263 258 240 139 130 6 304 287 263 308 343 25 35 30 16 48 101 83 47 79 349 22 15 30 112 344 61 12 173 176 172 209 220 181 175 147 136 133 145 144
205 209 216 213 214 217 220 224 226 227 241 263 272 261 255 242 222 211 199 313 343 304 292 279 296 204 122 4 14 79 81 77 58 39 284 193 74 111 74 248 359 326 156 112 92 283 184 180 169 158 167 155 149 144
205 206 211 211 212 214 218 223 222 234 242 259 269 270 249 236 226 215 204 334 343 319 318 44 112 169 299 351 16 319 100 98 26 12 346 98 113 130 206 216 149 241 78 111 31 78 121 181 170 165 159 155 159 166
205 209 211 210 209 212 216 216 218 232 239 251 265 279 247 234 222 220 187 188 252 28 294 293 251 207 234 277 337 178 303 308 225 186 109 240 243 100 353 59 13 2 197 139 209 179 145 167 171 167 163 168 175 170
203 203 206 208 210 213 213 202 203 210 224 250 263 267 245 221 207 185 177 214 215 221 305 332 318 249 218 257 294 209 211 57 187 187 210 213 182 180 116 197 183 84 61 59 167 159 141 155 177 186 190 187 185 185
196 199 203 206 206 202 202 202 214 220 234 257 264 261 233 207 191 177 173 188 197 186 247 300 296 207 222 238 280 226 211 243 266 241 234 216 197 152 127 186 204 194 13 33 185 179 169 172 172 179 202 191 191 183
193 197 201 200 196 195 197 200 212 218 235 249 257 236 206 196 192 192 121 181 180 186 219 220 273 226 196 192 216 203 208 223 234 231 249 217 206 202 227 225 229 249 274 278 231 207 225 199 191 200 194 186 173 172
191 194 191 194 195 190 193 198 195 206 216 226 204 177 169 176 178 186 188 168 192 200 243 234 180 222 184 191 193 185 207 170 236 207 222 168 274 220 220 204 207 245 234 280 269 235 184 181 202 188 185 182 182 178
194 189 188 190 191 188 184 180 188 192 198 173 153 149 164 167 150 150 163 199 182 206 238 249 252 265 192 181 185 181 180 202 308 243 184 145 247 248 243 232 232 291 202 201 164 170 189 196 193 187 193 204 210 203
189 187 186 186 192 188 180 184 184 181 168 159 155 107 137 141 148 178 190 182 187 234 216 225 218 235 223 151 198 202 184 184 165 260 139 256 281 245 252 245 247 244 241 250 234 214 188 175 180 228 215 215 209 206
178 176 182 182 182 180 177 182 183 179 164 156 123 129 140 186 195 180 200 213 172 212 206 195 209 208 240 214 172 186 167 105 234 140 112 263 249 265 294 267 261 240 238 241 226 216 226 242 256 263 269 222 213 211
182 173 165 167 175 178 182 184 178 172 167 155 150 156 181 181 51 191 193 224 180 208 197 185 185 184 213 225 151 121 148 221 285 61 215 223 334 31 342 240 194 190 203 193 196 223 250 257 257 244 250 259 227 211
168 169 169 169 174 179 182 185 175 179 172 169 176 226 177 227 226 196 189 187 190 212 196 190 164 176 171 117 141 125 231 105 224 211 233 321 82 98 107 112 127 124 135 147 246 284 284 282 268 241 250 250 224 204
168 171 175 181 175 175 182 186 173 177 168 216 215 214 208 230 237 236 241 258 242 265 225 169 158 179 122 115 172 82 211 223 199 214 183 93 79 98 116 114 101 100 108 113 226 255 290 290 282 280 261 237 216 201
160 154 157 158 163 176 171 168 168 166 217 227 234 272 295 228 263 267 265 253 247 253 232 167 132 116 185 156 139 210 197 215 210 140 121 97 85 76 80 96 80 58 47 39 29 349 300 336 281 251 238 213 205 211
151 154 157 163 166 163 164 164 175 204 217 224 238 258 279 286 271 284 203 225 227 187 137 115 124 193 137 128 185 42 332 181 128 115 102 89 87 87 81 82 77 61 35 26 9 346 321 312 322 232 215 211 215 220
167 159 156 159 155 153 165 175 221 184 250 254 285 353 5 40 39 84 65 110 135 98 102 122 134 89 133 129 32 34 72 116 115 107 96 80 77 73 72 62 53 46 44 43 42 47 53 40 316 257 233 220 218 220
149 151 150 155 145 143 159 200 147 269 258 318 284 316 17 50 68 73 72 73 87 91 97 61 71 69 98 98 115 87 70 73 111 84 89 95 91 72 54 39 40 26 2 358 355 350 352 2 357 337 246 225 231 238
143 147 148 149 171 144 124 176 205 319 288 295 270 304 6 360 40 75 76 60 77 74 62 51 80 107 112 111 105 101 85 74 108 94 77 80 68 60 20 3 19 4 345 324 316 321 314 309 320 315 304 290 266 257
150 152 155 158 164 165 176 156 175 237 266 262 295 246 281 89 73 87 67 67 63 59 86 106 95 88 113 124 128 131 145 276 5 13 349 331 331 338 328 326 317 317 325 323 320 310 313 321 318 317 309 301 289 258
155 162 155 160 132 10 231 192 200 208 224 242 261 165 104 110 100 150 142 90 118 146 126 50 75 69 119 128 126 127 339 303 285 287 291 294 306 310 303 302 310 310 305 304 306 306 301 298 304 305 298 273 272 274
160 161 144 178 236 232 250 187 220 209 199 192 151 120 225 182 184 162 170 202 230 245 255 258 281 238 181 137 355 313 278 268 272 272 271 275 267 262 268 268 275 301 313 310 307 311 306 295 294 290 287 282 284 283
168 172 201 202 199 213 199 204 200 257 174 113 138 190 206 187 179 182 172 194 238 244 231 239 214 172 129 126 135 142 151 265 270 283 289 281 277 277 285 289 286 284 292 297 297 295 290 287 290 291 292 296 289 276
185 213 198 212 194 190 181 182 191 193 195 181 192 188 235 171 99 178 183 111 103 132 151 158 150 149 150 135 142 213 255 277 286 288 291 292 295 293 290 287 287 288 290 291 290 289 288 287 282 278 273 284 301 294
237 207 201 224 192 183 170 183 192 192 195 167 195 169 173 162 158 196 100 129 124 147 158 169 164 164 194 231 252 272 288 292 294 293 292 293 295 296 298 301 303 299 296 296 296 293 290 287 281 275 274 274 276 282
274 268 263 272 308 302 268 67 66 101 156 183 99 90 120 220 150 164 155 173 178 183 188 214 234 241 247 255 263 277 294 301 302 299 298 296 297 297 297 299 300 303 308 303 300 297 294 292 287 282 276 270 266 269
231 240 213 161 288 145 103 112 62 54 315 270 162 110 143 167 166 165 180 185 198 214 240 248 247 249 255 262 257 275 302 316 321 321 319 312 315 317 309 301 299 305 302 303 304 305 303 294 284 284 280 277 272 254
191 320 261 158 130 88 52 91 132 177 206 207 109 117 147 127 157 173 170 173 233 265 243 252 271 294 283 297 297 295 320 331 325 340 341 335 334 331 328 319 313 307 304 294 292 301 299 293 292 285 279 275 266 264
308 351 92 75 83 108 97 130 125 123 120 146 148 128 149 161 167 173 181 198 225 265 279 313 42 317 302 297 296 294 301 305 324 324 327 322 325 328 325 322 318 317 315 307 303 304 295 294 285 283 274 281 291 275
279 17 71 63 83 134 133 132 131 129 114 86 102 141 148 157 189 199 205 198 219 205 190 244 267 248 255 268 289 292 299 300 297 303 318 317 318 326 325 322 323 321 315 309 314 313 306 299 293 287 280 271 281 280
204 211 201 137 129 165 171 173 156 149 160 163 153 128 157 161 172 188 198 185 172 183 239 263 280 282 285 296 298 307 311 310 313 318 308 311 325 327 327 327 327 326 324 323 324 322 314 304 293 278 275 281 276 276
210 224 216 144 141 179 192 180 185 163 190 186 178 179 182 183 186 182 167 172 172 235 239 312 321 312 311 317 324 317 315 319 321 327 336 327 323 329 334 333 334 332 328 324 338 334 335 336 314 293 284 275 266 258